Location: Arrington
(35.8681°N, 86.7092°W)
Time: 14:14:17
(UTC+00:00)

Delta 2 Rocket - Pass Details

Date: 23 November 2019
Orbit: 416 x 810 km, 35.6° (Epoch: 07 December)

Event Time Altitude Azimuth Distance (km) Brightness Sun altitude
Exits shadow 11:15:49 26° 271° (W) 1,126 4.3 -15.1°
Maximum altitude 11:18:08 73° 191° (SSW) 623 3.5 -14.7°
Drops below altitude 10° 11:22:55 10° 107° (ESE) 2,060 7.7 -13.7°
Sets 11:25:27 0° 105° (ESE) 3,042 9.2 -13.2°
